Weather History for MRLB - June, 2013

Change the Weather History Date:

Tuesday, June 25, 2013

  Actual Average Record
Temperature  
Mean Temperature 82 °F -  
Max Temperature 91 °F 87 °F 91 °F (2002)
Min Temperature 74 °F 75 °F 71 °F (2008)
Cooling Degree Days 18    
Growing Degree Days 32 (Base 50)    
Moisture  
Dew Point 69 °F    
Average Humidity 62    
Maximum Humidity 89    
Minimum Humidity 40    
Precipitation  
Precipitation 0.00 in - - ()
Sea Level Pressure  
Sea Level Pressure 29.88 in    
Wind  
Wind Speed 7 mph ()    
Max Wind Speed 15 mph    
Max Gust Speed -    
Visibility 7.7 miles    
Events Rain    
Averages and records for this station are not official NWS values.
T = Trace of Precipitation, MM = Missing Value Source: Averaged Metar Reports

Daily Weather History Graph

Daily Weather History Graph

Search for Another Location

Airport or City:

Trip Planner

Search our weather history database for the weather conditions in past years. The results will help you decide how hot, cold, wet, or windy it might be!

Date:

Astronomy

Jun. 25, 2013 Rise Set
Actual Time 5:22 AM CST 6:07 PM CST
Civil Twilight 4:59 AM CST 6:30 PM CST
Nautical Twilight 4:32 AM CST 6:57 PM CST
Astronomical Twilight 4:04 AM CST 7:25 PM CST
Moon 8:25 PM CST 7:34 AM CST
Length of Visible Light 13h 30m
Length of Day
12h 44m
Waning Gibbous, 92% of the Moon is Illuminated
Jun 25
Waning Gibbous
Jun 29
Last Quarter
Jul 8
New
Jul 15
First Quarter
Jul 22
Full

Hourly Weather History & Observations

Time (CST) Temp. Heat Index Dew Point Humidity Pressure Visibility Wind Dir Wind Speed Gust Speed Precip Events Conditions
6:00 AM 76 °F - 72 °F 82% 29.89 in 12 mi NE 3.5 mph - -   Overcast
6:00 AM 75.2 °F - 71.6 °F 89% 29.87 in 6.2 mi NE 3.5 mph - N/A   Mostly Cloudy
7:00 AM 77.0 °F - 71.6 °F 83% 29.89 in 6.2 mi NW 3.5 mph - N/A   Mostly Cloudy
8:00 AM 78.8 °F - 71.6 °F 78% 29.92 in 6.2 mi NNE 3.5 mph - N/A   Mostly Cloudy
9:00 AM 80 °F - 73 °F 74% 29.94 in 12 mi NE 3.5 mph - - Rain Light Drizzle
9:00 AM 80.6 °F 85.4 °F 73.4 °F 79% 29.92 in 6.2 mi NE 3.5 mph - N/A   Light Drizzle
10:00 AM 84.2 °F 89.6 °F 71.6 °F 66% 29.92 in 6.2 mi ENE 4.6 mph - N/A   Mostly Cloudy
11:00 AM 87.8 °F 91.4 °F 68.0 °F 52% 29.91 in 6.2 mi East 15.0 mph - N/A   Mostly Cloudy
12:00 PM 89 °F - 68 °F 40% 29.90 in 12 mi East 13.8 mph - -   Overcast
12:00 PM 89.6 °F 93.4 °F 68.0 °F 49% 29.89 in 6.2 mi East 13.8 mph - N/A   Mostly Cloudy
1:00 PM 89.6 °F 93.4 °F 68.0 °F 49% 29.87 in 6.2 mi ENE 15.0 mph - N/A   Mostly Cloudy
2:00 PM 89.6 °F 93.4 °F 68.0 °F 49% 29.86 in 6.2 mi ENE 15.0 mph - N/A   Mostly Cloudy
3:00 PM 87 °F - 69 °F 45% 29.86 in 12 mi NE 15.0 mph - -   Overcast
3:00 PM 87.8 °F 91.4 °F 68.0 °F 52% 29.85 in 6.2 mi NE 15.0 mph - N/A   Mostly Cloudy
4:00 PM 86.0 °F 90.4 °F 69.8 °F 58% 29.84 in 6.2 mi ENE 11.5 mph - N/A   Overcast
5:00 PM 84.2 °F 88.4 °F 69.8 °F 62% 29.85 in 6.2 mi East 12.7 mph - N/A   Mostly Cloudy
6:00 PM 81 °F - 66 °F 51% 29.86 in 12 mi ESE 10.4 mph - -   Overcast
6:00 PM 80.6 °F 82.7 °F 66.2 °F 61% 29.85 in 6.2 mi ESE 10.4 mph - N/A   Overcast
7:00 PM 80.6 °F 82.7 °F 66.2 °F 61% 29.86 in 6.2 mi East 11.5 mph - N/A   Overcast
8:00 PM 77.0 °F - 66.2 °F 69% 29.86 in 6.2 mi SE 5.8 mph - N/A   Overcast